Tracking 17884 objects as of 3-December-2016
HD Live streaming from Space Station
objects crossing your sky now

COSMOS 2378

Track COSMOS 2378 now!
10-day predictions
COSMOS 2378 is classified as:


NORAD ID: 26818
Int'l Code: 2001-023A
Perigee: 967.7 km
Apogee: 1,017.8 km
Inclination: 82.9 °
Period: 104.8 minutes
Semi major axis: 7363 km
RCS: 1.9621 m2 (large)
Launch date: June 8, 2001
Source: Commonwealth of Independent States (former USSR) (CIS)
Launch site: PLESETSK MISSILE AND SPACE COMPLEX (PKMTR)

Normally part of a six-satellite constellation.
Your satellite tracking list
Your tracking list is empty





NASA's NSSDC Master Catalog

Two Line Element Set (TLE):
1 26818U 01023A   16338.64571852  .00000027  00000-0  12492-4 0  9991
2 26818  82.9283 282.2403 0033976  24.8907 335.3879 13.73908498776682
Source of the keplerian elements: AFSPC